Time,TemperatureF,DewpointF,PressureIn,WindDirection,WindDirectionDegrees,WindSpeedMPH,WindSpeedGustMPH,Humidity,HourlyPrecipIn,Conditions,Clouds,dailyrainin,SoftwareType,DateUTC
2013-03-06 00:00:00,32.9,25.1,29.53,NE,45,0.0,0.0,73,0.00,,,0.00,WUHU216HW,2013-03-06 05:00:00,
2013-03-06 00:05:00,32.9,25.2,29.53,NE,45,0.0,0.0,73,0.00,,,0.00,WUHU216HW,2013-03-06 05:05:00,
2013-03-06 00:10:00,32.9,25.4,29.53,NE,45,0.0,0.0,74,0.00,,,0.00,WUHU216HW,2013-03-06 05:10:00,
2013-03-06 00:15:00,32.9,25.4,29.53,NE,45,0.0,0.0,74,0.00,,,0.00,WUHU216HW,2013-03-06 05:15:00,
2013-03-06 00:20:00,32.9,25.4,29.53,NNE,23,0.0,0.0,74,0.00,,,0.00,WUHU216HW,2013-03-06 05:20:00,
2013-03-06 00:25:00,32.9,25.7,29.53,NNE,23,0.0,0.0,75,0.00,,,0.00,WUHU216HW,2013-03-06 05:25:00,
2013-03-06 00:30:00,32.9,25.7,29.53,NNE,23,0.0,0.0,75,0.00,,,0.00,WUHU216HW,2013-03-06 05:30:00,
2013-03-06 00:35:00,32.9,25.7,29.52,NE,45,0.0,0.0,75,0.00,,,0.00,WUHU216HW,2013-03-06 05:35:00,
2013-03-06 00:40:00,32.9,25.7,29.52,North,0,0.0,0.0,75,0.00,,,0.00,WUHU216HW,2013-03-06 05:40:00,
2013-03-06 00:45:00,33.0,26.2,29.52,NE,45,0.0,0.0,76,0.00,,,0.00,WUHU216HW,2013-03-06 05:45:00,
2013-03-06 00:50:00,33.2,26.4,29.52,NE,45,0.0,0.0,76,0.00,,,0.00,WUHU216HW,2013-03-06 05:50:00,
2013-03-06 00:55:00,33.0,26.4,29.52,NE,45,0.0,0.0,76,0.00,,,0.00,WUHU216HW,2013-03-06 05:55:00,
2013-03-06 01:00:00,33.0,26.2,29.52,East,90,0.0,2.6,76,0.00,,,0.00,WUHU216HW,2013-03-06 06:00:00,
2013-03-06 01:05:00,33.0,26.2,29.52,NNE,23,0.0,2.6,76,0.00,,,0.00,WUHU216HW,2013-03-06 06:05:00,
2013-03-06 01:10:00,33.0,26.6,29.52,NE,45,0.0,0.0,77,0.00,,,0.00,WUHU216HW,2013-03-06 06:10:00,
2013-03-06 01:15:00,33.0,26.6,29.52,NE,45,0.0,0.0,77,0.00,,,0.00,WUHU216HW,2013-03-06 06:15:00,
2013-03-06 01:20:00,32.9,26.4,29.53,NNE,23,0.0,0.0,77,0.00,,,0.00,WUHU216HW,2013-03-06 06:20:00,
2013-03-06 01:25:00,32.9,26.4,29.53,ENE,68,0.0,0.0,77,0.00,,,0.00,WUHU216HW,2013-03-06 06:25:00,
2013-03-06 01:30:00,32.9,26.4,29.53,ENE,68,0.0,0.0,77,0.00,,,0.00,WUHU216HW,2013-03-06 06:30:00,
2013-03-06 01:35:00,32.9,26.7,29.53,NNE,23,0.0,0.0,78,0.00,,,0.00,WUHU216HW,2013-03-06 06:35:00,
2013-03-06 01:40:00,32.9,26.7,29.53,ENE,68,0.0,0.0,78,0.00,,,0.00,WUHU216HW,2013-03-06 06:40:00,
2013-03-06 01:45:00,32.9,26.7,29.53,ENE,68,0.0,0.0,78,0.00,,,0.00,WUHU216HW,2013-03-06 06:45:00,
2013-03-06 01:50:00,32.7,26.7,29.54,North,0,2.0,2.0,78,0.00,,,0.00,WUHU216HW,2013-03-06 06:50:00,
2013-03-06 01:55:00,32.7,26.6,29.53,NE,45,0.0,2.0,78,0.00,,,0.00,WUHU216HW,2013-03-06 06:55:00,
2013-03-06 02:00:00,32.7,26.6,29.53,NNW,338,0.0,0.0,78,0.00,,,0.00,WUHU216HW,2013-03-06 07:00:00,
2013-03-06 02:05:00,32.7,26.6,29.53,ENE,68,0.0,0.0,78,0.00,,,0.00,WUHU216HW,2013-03-06 07:05:00,
2013-03-06 02:10:00,32.7,26.6,29.54,ENE,68,0.0,0.0,78,0.00,,,0.00,WUHU216HW,2013-03-06 07:10:00,
2013-03-06 02:15:00,32.7,26.6,29.54,East,90,0.0,0.0,78,0.00,,,0.00,WUHU216HW,2013-03-06 07:15:00,
2013-03-06 02:20:00,32.7,26.6,29.54,East,90,0.0,0.0,78,0.00,,,0.00,WUHU216HW,2013-03-06 07:20:00,
2013-03-06 02:25:00,32.5,26.4,29.54,East,90,0.0,0.0,78,0.00,,,0.00,WUHU216HW,2013-03-06 07:25:00,
2013-03-06 02:30:00,32.5,26.4,29.54,North,0,0.0,0.0,78,0.00,,,0.00,WUHU216HW,2013-03-06 07:30:00,
2013-03-06 02:35:00,32.5,26.4,29.55,East,90,0.0,0.0,78,0.00,,,0.00,WUHU216HW,2013-03-06 07:35:00,
2013-03-06 02:40:00,32.5,26.4,29.55,East,90,0.0,0.0,78,0.00,,,0.00,WUHU216HW,2013-03-06 07:40:00,
2013-03-06 02:45:00,32.3,26.2,29.55,East,90,0.0,0.0,78,0.00,,,0.00,WUHU216HW,2013-03-06 07:45:00,
2013-03-06 02:50:00,32.3,26.2,29.55,East,90,0.0,0.0,78,0.00,,,0.00,WUHU216HW,2013-03-06 07:50:00,
2013-03-06 02:55:00,32.1,26.1,29.55,East,90,0.0,0.0,78,0.00,,,0.00,WUHU216HW,2013-03-06 07:55:00,
2013-03-06 03:00:00,32.1,26.4,29.56,East,90,0.0,0.0,79,0.00,,,0.00,WUHU216HW,2013-03-06 08:00:00,
2013-03-06 03:05:00,32.1,26.4,29.56,East,90,0.0,0.0,79,0.00,,,0.00,WUHU216HW,2013-03-06 08:05:00,
2013-03-06 03:10:00,32.1,26.4,29.56,East,90,0.0,0.0,79,0.00,,,0.00,WUHU216HW,2013-03-06 08:10:00,
2013-03-06 03:15:00,32.1,26.4,29.57,East,90,0.0,0.0,79,0.00,,,0.00,WUHU216HW,2013-03-06 08:15:00,
2013-03-06 03:20:00,32.1,26.4,29.57,East,90,0.0,0.0,79,0.00,,,0.00,WUHU216HW,2013-03-06 08:20:00,
2013-03-06 03:25:00,32.1,26.4,29.58,East,90,0.0,0.0,79,0.00,,,0.00,WUHU216HW,2013-03-06 08:25:00,
2013-03-06 03:30:00,32.1,26.4,29.58,East,90,0.0,0.0,79,0.00,,,0.00,WUHU216HW,2013-03-06 08:30:00,
2013-03-06 03:35:00,32.1,26.4,29.58,East,90,0.0,0.0,79,0.00,,,0.00,WUHU216HW,2013-03-06 08:35:00,
2013-03-06 03:40:00,32.1,26.4,29.58,East,90,0.0,0.0,79,0.00,,,0.00,WUHU216HW,2013-03-06 08:40:00,
2013-03-06 03:45:00,32.1,26.4,29.59,East,90,0.0,0.0,79,0.00,,,0.00,WUHU216HW,2013-03-06 08:45:00,
2013-03-06 03:50:00,32.1,26.4,29.59,East,90,0.0,0.0,79,0.00,,,0.00,WUHU216HW,2013-03-06 08:50:00,
2013-03-06 03:55:00,32.1,26.4,29.59,East,90,0.0,0.0,79,0.00,,,0.00,WUHU216HW,2013-03-06 08:55:00,
2013-03-06 04:00:00,32.1,26.4,29.60,East,90,0.0,0.0,79,0.00,,,0.00,WUHU216HW,2013-03-06 09:00:00,
2013-03-06 04:05:00,32.1,26.4,29.60,East,90,0.0,0.0,79,0.00,,,0.00,WUHU216HW,2013-03-06 09:05:00,
2013-03-06 04:10:00,31.8,26.0,29.60,East,90,0.0,0.0,79,0.00,,,0.00,WUHU216HW,2013-03-06 09:10:00,
2013-03-06 04:15:00,32.0,26.6,29.61,East,90,0.0,0.0,80,0.00,,,0.00,WUHU216HW,2013-03-06 09:15:00,
2013-03-06 04:20:00,31.8,26.6,29.61,East,90,0.0,0.0,80,0.00,,,0.00,WUHU216HW,2013-03-06 09:20:00,
2013-03-06 04:25:00,32.0,26.6,29.62,East,90,0.0,0.0,80,0.00,,,0.00,WUHU216HW,2013-03-06 09:25:00,
2013-03-06 04:30:00,32.0,26.6,29.62,East,90,0.0,0.0,80,0.00,,,0.00,WUHU216HW,2013-03-06 09:30:00,
2013-03-06 04:35:00,32.0,26.6,29.63,East,90,0.0,0.0,80,0.00,,,0.00,WUHU216HW,2013-03-06 09:35:00,
2013-03-06 04:40:00,32.0,26.6,29.63,East,90,0.0,0.0,80,0.00,,,0.00,WUHU216HW,2013-03-06 09:40:00,
2013-03-06 04:45:00,31.8,26.4,29.63,East,90,0.0,0.0,80,0.00,,,0.00,WUHU216HW,2013-03-06 09:45:00,
2013-03-06 04:50:00,31.8,26.4,29.64,East,90,0.0,0.0,80,0.00,,,0.00,WUHU216HW,2013-03-06 09:50:00,
2013-03-06 04:55:00,31.6,26.4,29.64,East,90,0.0,0.0,80,0.00,,,0.00,WUHU216HW,2013-03-06 09:55:00,
2013-03-06 05:00:00,31.8,26.4,29.65,East,90,0.0,0.0,80,0.00,,,0.00,WUHU216HW,2013-03-06 10:00:00,
2013-03-06 05:05:00,31.8,26.4,29.65,East,90,0.0,0.0,80,0.00,,,0.00,WUHU216HW,2013-03-06 10:05:00,
2013-03-06 05:10:00,31.6,25.9,29.66,East,90,0.0,0.0,80,0.00,,,0.00,WUHU216HW,2013-03-06 10:10:00,
2013-03-06 05:15:00,31.6,25.9,29.66,East,90,0.0,0.0,79,0.00,,,0.00,WUHU216HW,2013-03-06 10:15:00,
2013-03-06 05:20:00,31.6,25.9,29.67,East,90,0.0,0.0,79,0.00,,,0.00,WUHU216HW,2013-03-06 10:20:00,
2013-03-06 05:25:00,31.4,25.9,29.67,East,90,0.0,0.0,79,0.00,,,0.00,WUHU216HW,2013-03-06 10:25:00,
2013-03-06 05:30:00,31.4,25.7,29.67,East,90,0.0,0.0,79,0.00,,,0.00,WUHU216HW,2013-03-06 10:30:00,
2013-03-06 05:35:00,31.4,25.7,29.68,East,90,0.0,0.0,79,0.00,,,0.00,WUHU216HW,2013-03-06 10:35:00,
2013-03-06 05:40:00,31.4,25.7,29.68,East,90,0.0,0.0,79,0.00,,,0.00,WUHU216HW,2013-03-06 10:40:00,
2013-03-06 05:45:00,31.2,25.5,29.68,East,90,0.0,0.0,79,0.00,,,0.00,WUHU216HW,2013-03-06 10:45:00,
2013-03-06 05:50:00,31.2,25.5,29.69,East,90,0.0,0.0,79,0.00,,,0.00,WUHU216HW,2013-03-06 10:50:00,
2013-03-06 05:55:00,31.2,25.5,29.70,East,90,0.0,0.0,79,0.00,,,0.00,WUHU216HW,2013-03-06 10:55:00,
2013-03-06 06:00:00,31.1,25.3,29.71,East,90,0.0,0.0,79,0.00,,,0.00,WUHU216HW,2013-03-06 11:00:00,
2013-03-06 06:05:00,31.1,25.3,29.71,East,90,0.0,0.0,79,0.00,,,0.00,WUHU216HW,2013-03-06 11:05:00,
2013-03-06 06:10:00,31.1,25.3,29.72,East,90,0.0,0.0,79,0.00,,,0.00,WUHU216HW,2013-03-06 11:10:00,
2013-03-06 06:15:00,31.1,25.3,29.72,East,90,0.0,0.0,79,0.00,,,0.00,WUHU216HW,2013-03-06 11:15:00,
2013-03-06 06:20:00,30.9,25.3,29.73,East,90,0.0,0.0,79,0.00,,,0.00,WUHU216HW,2013-03-06 11:20:00,
2013-03-06 06:25:00,30.9,25.1,29.73,East,90,0.0,0.0,79,0.00,,,0.00,WUHU216HW,2013-03-06 11:25:00,
2013-03-06 06:30:00,30.9,25.1,29.73,East,90,0.0,0.0,79,0.00,,,0.00,WUHU216HW,2013-03-06 11:30:00,
2013-03-06 06:35:00,30.9,25.1,29.74,East,90,0.0,0.0,79,0.00,,,0.00,WUHU216HW,2013-03-06 11:35:00,
2013-03-06 06:40:00,30.9,25.1,29.74,East,90,0.0,0.0,79,0.00,,,0.00,WUHU216HW,2013-03-06 11:40:00,
2013-03-06 06:45:00,30.9,25.1,29.75,East,90,0.0,0.0,79,0.00,,,0.00,WUHU216HW,2013-03-06 11:45:00,
2013-03-06 06:50:00,30.7,25.0,29.76,East,90,0.0,0.0,79,0.00,,,0.00,WUHU216HW,2013-03-06 11:50:00,
2013-03-06 06:55:00,30.7,25.0,29.76,East,90,0.0,0.0,79,0.00,,,0.00,WUHU216HW,2013-03-06 11:55:00,
2013-03-06 07:00:00,30.7,25.0,29.76,East,90,0.0,0.0,79,0.00,,,0.00,WUHU216HW,2013-03-06 12:00:00,
2013-03-06 07:05:00,30.7,25.0,29.76,East,90,0.0,0.0,79,0.00,,,0.00,WUHU216HW,2013-03-06 12:05:00,
2013-03-06 07:10:00,30.7,25.0,29.78,North,0,0.0,0.0,79,0.00,,,0.00,WUHU216HW,2013-03-06 12:10:00,
2013-03-06 07:15:00,30.9,25.1,29.78,East,90,0.0,0.0,79,0.00,,,0.00,WUHU216HW,2013-03-06 12:15:00,
2013-03-06 07:20:00,30.7,25.0,29.78,East,90,0.0,0.0,79,0.00,,,0.00,WUHU216HW,2013-03-06 12:20:00,
2013-03-06 07:25:00,30.9,25.1,29.79,East,90,0.0,0.0,79,0.00,,,0.00,WUHU216HW,2013-03-06 12:25:00,
2013-03-06 07:30:00,31.1,25.3,29.80,East,90,0.0,0.0,79,0.00,,,0.00,WUHU216HW,2013-03-06 12:30:00,
2013-03-06 07:35:00,31.1,25.3,29.80,East,90,0.0,0.0,79,0.00,,,0.00,WUHU216HW,2013-03-06 12:35:00,
2013-03-06 07:40:00,31.2,25.3,29.81,East,90,0.0,0.0,79,0.00,,,0.00,WUHU216HW,2013-03-06 12:40:00,
2013-03-06 07:45:00,31.4,25.7,29.81,East,90,0.0,0.0,79,0.00,,,0.00,WUHU216HW,2013-03-06 12:45:00,
2013-03-06 07:50:00,31.4,25.7,29.82,East,90,0.0,0.0,79,0.00,,,0.00,WUHU216HW,2013-03-06 12:50:00,
2013-03-06 07:55:00,31.6,26.2,29.82,East,90,0.0,0.0,80,0.00,,,0.00,WUHU216HW,2013-03-06 12:55:00,
2013-03-06 08:00:00,32.0,26.6,29.83,East,90,0.0,0.0,80,0.00,,,0.00,WUHU216HW,2013-03-06 13:00:00,
2013-03-06 08:05:00,32.1,26.7,29.83,East,90,0.0,0.0,80,0.00,,,0.00,WUHU216HW,2013-03-06 13:05:00,
2013-03-06 08:10:00,32.1,26.7,29.84,East,90,0.0,0.0,80,0.00,,,0.00,WUHU216HW,2013-03-06 13:10:00,
2013-03-06 08:15:00,32.1,26.7,29.84,East,90,0.0,0.0,80,0.00,,,0.00,WUHU216HW,2013-03-06 13:15:00,
2013-03-06 08:20:00,32.1,26.7,29.85,East,90,0.0,0.0,80,0.00,,,0.00,WUHU216HW,2013-03-06 13:20:00,
2013-03-06 08:25:00,32.3,26.9,29.85,East,90,0.0,0.0,80,0.00,,,0.00,WUHU216HW,2013-03-06 13:25:00,
2013-03-06 08:30:00,32.3,26.9,29.86,East,90,0.0,0.0,80,0.00,,,0.00,WUHU216HW,2013-03-06 13:30:00,
2013-03-06 08:35:00,32.3,26.9,29.87,East,90,0.0,0.0,80,0.00,,,0.00,WUHU216HW,2013-03-06 13:35:00,
2013-03-06 08:40:00,32.5,27.0,29.87,East,90,0.0,0.0,80,0.00,,,0.00,WUHU216HW,2013-03-06 13:40:00,
2013-03-06 08:45:00,32.7,27.4,29.88,East,90,0.0,0.0,80,0.00,,,0.00,WUHU216HW,2013-03-06 13:45:00,
2013-03-06 08:50:00,32.7,27.2,29.89,East,90,0.0,0.0,80,0.00,,,0.00,WUHU216HW,2013-03-06 13:50:00,
2013-03-06 08:55:00,32.9,27.4,29.89,East,90,0.0,0.0,80,0.00,,,0.00,WUHU216HW,2013-03-06 13:55:00,
2013-03-06 09:01:00,33.0,27.4,29.89,East,90,0.0,0.0,80,0.00,,,0.00,WUHU216HW,2013-03-06 14:01:00,
2013-03-06 09:06:00,33.2,27.7,29.89,East,90,0.0,0.0,80,0.00,,,0.00,WUHU216HW,2013-03-06 14:06:00,
2013-03-06 09:11:00,33.4,27.8,29.90,East,90,0.0,0.0,80,0.00,,,0.00,WUHU216HW,2013-03-06 14:11:00,
2013-03-06 09:16:00,33.8,28.2,29.90,East,90,0.0,0.0,80,0.00,,,0.00,WUHU216HW,2013-03-06 14:16:00,
2013-03-06 09:21:00,33.9,28.4,29.90,East,90,0.0,0.0,80,0.00,,,0.00,WUHU216HW,2013-03-06 14:21:00,
2013-03-06 09:26:00,34.3,28.7,29.91,East,90,0.0,0.0,80,0.00,,,0.00,WUHU216HW,2013-03-06 14:26:00,
2013-03-06 09:31:00,34.5,28.9,29.91,East,90,0.0,0.0,80,0.00,,,0.00,WUHU216HW,2013-03-06 14:31:00,
2013-03-06 09:36:00,34.7,29.1,29.91,East,90,0.0,0.0,79,0.00,,,0.00,WUHU216HW,2013-03-06 14:36:00,
2013-03-06 09:41:00,34.7,28.9,29.92,East,90,0.0,0.0,79,0.00,,,0.00,WUHU216HW,2013-03-06 14:41:00,
2013-03-06 09:46:00,35.0,29.1,29.91,East,90,0.0,0.0,79,0.00,,,0.00,WUHU216HW,2013-03-06 14:46:00,
2013-03-06 09:51:00,35.4,29.5,29.93,East,90,0.0,0.0,79,0.00,,,0.00,WUHU216HW,2013-03-06 14:51:00,
2013-03-06 09:56:00,35.7,29.8,29.93,East,90,0.0,0.0,79,0.00,,,0.00,WUHU216HW,2013-03-06 14:56:00,
2013-03-06 10:01:00,35.7,29.5,29.94,East,90,0.0,0.0,78,0.00,,,0.00,WUHU216HW,2013-03-06 15:01:00,
2013-03-06 10:06:00,35.9,29.7,29.94,East,90,0.0,0.0,78,0.00,,,0.00,WUHU216HW,2013-03-06 15:06:00,
2013-03-06 10:11:00,36.1,29.5,29.94,East,90,0.0,0.0,77,0.00,,,0.00,WUHU216HW,2013-03-06 15:11:00,
2013-03-06 10:16:00,36.3,29.7,29.95,East,90,0.0,0.0,77,0.00,,,0.00,WUHU216HW,2013-03-06 15:16:00,
2013-03-06 10:21:00,36.5,29.6,29.95,East,90,0.0,0.0,76,0.00,,,0.00,WUHU216HW,2013-03-06 15:21:00,
2013-03-06 10:26:00,36.8,30.3,29.96,East,90,0.0,0.0,77,0.00,,,0.00,WUHU216HW,2013-03-06 15:26:00,
2013-03-06 10:31:00,37.7,31.1,29.96,East,90,0.0,0.0,77,0.00,,,0.00,WUHU216HW,2013-03-06 15:31:00,
2013-03-06 10:36:00,38.3,31.7,29.96,East,90,0.0,0.0,77,0.00,,,0.00,WUHU216HW,2013-03-06 15:36:00,
2013-03-06 10:41:00,38.6,31.7,29.97,East,90,0.0,0.0,76,0.00,,,0.00,WUHU216HW,2013-03-06 15:41:00,
2013-03-06 10:46:00,38.3,31.0,29.97,East,90,0.0,0.0,75,0.00,,,0.00,WUHU216HW,2013-03-06 15:46:00,
2013-03-06 10:51:00,38.4,30.8,29.97,East,90,0.0,0.0,74,0.00,,,0.00,WUHU216HW,2013-03-06 15:51:00,
2013-03-06 10:56:00,38.8,31.2,29.98,ENE,68,0.0,0.0,74,0.00,,,0.00,WUHU216HW,2013-03-06 15:56:00,
2013-03-06 11:01:00,38.8,30.8,29.98,NNE,23,0.0,0.0,73,0.00,,,0.00,WUHU216HW,2013-03-06 16:01:00,
2013-03-06 11:06:00,38.8,30.8,29.98,NNE,23,0.0,0.0,73,0.00,,,0.00,WUHU216HW,2013-03-06 16:06:00,
2013-03-06 11:11:00,39.2,31.2,29.98,East,90,0.0,0.0,73,0.00,,,0.00,WUHU216HW,2013-03-06 16:11:00,
2013-03-06 11:16:00,39.3,31.0,29.99,East,90,0.0,0.0,72,0.00,,,0.00,WUHU216HW,2013-03-06 16:16:00,
2013-03-06 11:21:00,39.5,31.2,29.99,East,90,0.0,0.0,72,0.00,,,0.00,WUHU216HW,2013-03-06 16:21:00,
2013-03-06 11:26:00,39.9,31.5,29.99,East,90,0.0,0.0,72,0.00,,,0.00,WUHU216HW,2013-03-06 16:26:00,
2013-03-06 11:31:00,40.1,31.7,29.99,NE,45,0.0,1.3,72,0.00,,,0.00,WUHU216HW,2013-03-06 16:31:00,
2013-03-06 11:36:00,40.1,31.4,29.99,NNE,23,0.0,1.3,71,0.00,,,0.00,WUHU216HW,2013-03-06 16:36:00,
2013-03-06 11:41:00,40.6,31.9,29.99,NNE,23,0.0,0.0,71,0.00,,,0.00,WUHU216HW,2013-03-06 16:41:00,
2013-03-06 11:46:00,40.6,31.6,30.00,NNE,23,0.0,0.0,70,0.00,,,0.00,WUHU216HW,2013-03-06 16:46:00,
2013-03-06 11:51:00,40.8,31.6,30.00,North,0,0.0,0.0,70,0.00,,,0.00,WUHU216HW,2013-03-06 16:51:00,
2013-03-06 11:56:00,41.0,31.8,30.00,North,0,0.0,0.0,70,0.00,,,0.00,WUHU216HW,2013-03-06 16:56:00,
2013-03-06 12:01:00,40.6,31.6,30.01,North,0,0.0,0.0,70,0.00,,,0.00,WUHU216HW,2013-03-06 17:01:00,
2013-03-06 12:06:00,40.6,31.2,30.01,NNE,23,0.0,0.0,69,0.00,,,0.00,WUHU216HW,2013-03-06 17:06:00,
2013-03-06 12:11:00,40.1,30.7,30.01,NNE,23,0.0,0.0,69,0.00,,,0.00,WUHU216HW,2013-03-06 17:11:00,
2013-03-06 12:16:00,39.9,30.7,30.01,NNE,23,0.0,0.0,69,0.00,,,0.00,WUHU216HW,2013-03-06 17:16:00,
2013-03-06 12:21:00,39.9,30.5,30.01,NNE,23,0.0,0.0,69,0.00,,,0.00,WUHU216HW,2013-03-06 17:21:00,
2013-03-06 12:26:00,39.5,30.1,30.02,NNE,23,0.0,0.0,69,0.00,,,0.00,WUHU216HW,2013-03-06 17:26:00,
2013-03-06 12:31:00,39.2,30.0,30.02,NNW,338,0.0,0.0,69,0.00,,,0.00,WUHU216HW,2013-03-06 17:31:00,
2013-03-06 12:36:00,38.8,29.4,30.02,NNW,338,0.0,0.0,69,0.00,,,0.00,WUHU216HW,2013-03-06 17:36:00,
2013-03-06 12:41:00,38.4,29.1,30.02,NNW,338,0.0,0.0,69,0.00,,,0.00,WUHU216HW,2013-03-06 17:41:00,
2013-03-06 12:46:00,38.1,28.6,30.03,WSW,248,0.0,0.0,68,0.00,,,0.00,WUHU216HW,2013-03-06 17:46:00,
2013-03-06 12:51:00,37.9,28.6,30.03,NNW,338,0.0,0.0,69,0.00,,,0.00,WUHU216HW,2013-03-06 17:51:00,
2013-03-06 12:56:00,37.7,28.5,30.03,NNW,338,0.0,0.0,69,0.00,,,0.00,WUHU216HW,2013-03-06 17:56:00,
2013-03-06 13:01:00,37.9,29.0,30.03,NNW,338,0.0,0.0,70,0.00,,,0.00,WUHU216HW,2013-03-06 18:01:00,
2013-03-06 13:06:00,37.9,29.0,30.03,NNW,338,0.0,0.0,70,0.00,,,0.00,WUHU216HW,2013-03-06 18:06:00,
2013-03-06 13:11:00,38.1,29.7,30.03,North,0,0.0,0.0,71,0.00,,,0.00,WUHU216HW,2013-03-06 18:11:00,
2013-03-06 13:16:00,38.3,29.7,30.03,North,0,0.0,0.0,71,0.00,,,0.00,WUHU216HW,2013-03-06 18:16:00,
2013-03-06 13:21:00,38.8,30.2,30.03,NNE,23,0.0,0.0,71,0.00,,,0.00,WUHU216HW,2013-03-06 18:21:00,
2013-03-06 13:26:00,39.0,30.5,30.03,NNW,338,0.0,0.0,71,0.00,,,0.00,WUHU216HW,2013-03-06 18:26:00,
2013-03-06 13:31:00,39.3,30.7,30.03,NW,315,0.0,0.0,71,0.00,,,0.00,WUHU216HW,2013-03-06 18:31:00,
2013-03-06 13:36:00,39.3,30.3,30.03,NNW,338,0.0,0.0,70,0.00,,,0.00,WUHU216HW,2013-03-06 18:36:00,
2013-03-06 13:41:00,39.3,30.3,30.03,NNE,23,0.0,0.0,70,0.00,,,0.00,WUHU216HW,2013-03-06 18:41:00,
2013-03-06 13:46:00,39.2,30.2,30.03,North,0,0.0,0.0,70,0.00,,,0.00,WUHU216HW,2013-03-06 18:46:00,
2013-03-06 13:51:00,39.2,29.6,30.03,NNE,23,0.0,0.0,69,0.00,,,0.00,WUHU216HW,2013-03-06 18:51:00,
2013-03-06 13:56:00,39.2,30.2,30.03,NNW,338,0.0,0.0,70,0.00,,,0.00,WUHU216HW,2013-03-06 18:56:00,
2013-03-06 14:01:00,39.2,29.8,30.03,WNW,293,0.0,0.0,69,0.00,,,0.00,WUHU216HW,2013-03-06 19:01:00,
2013-03-06 14:06:00,39.2,29.8,30.03,NW,315,0.0,0.0,69,0.00,,,0.00,WUHU216HW,2013-03-06 19:06:00,
2013-03-06 14:11:00,39.3,30.0,30.04,West,270,0.0,0.0,69,0.00,,,0.00,WUHU216HW,2013-03-06 19:11:00,
2013-03-06 14:16:00,39.3,30.0,30.04,WNW,293,0.0,0.0,69,0.00,,,0.00,WUHU216HW,2013-03-06 19:16:00,
2013-03-06 14:21:00,39.5,30.1,30.04,West,270,0.0,0.0,69,0.00,,,0.00,WUHU216HW,2013-03-06 19:21:00,
2013-03-06 14:26:00,39.5,30.1,30.04,West,270,0.0,0.0,69,0.00,,,0.00,WUHU216HW,2013-03-06 19:26:00,
2013-03-06 14:31:00,39.5,29.8,30.04,WNW,293,0.0,0.0,68,0.00,,,0.00,WUHU216HW,2013-03-06 19:31:00,
2013-03-06 14:36:00,39.5,29.8,30.04,WNW,293,0.0,0.0,68,0.00,,,0.00,WUHU216HW,2013-03-06 19:36:00,
2013-03-06 14:41:00,39.5,29.8,30.05,WNW,293,0.0,0.0,68,0.00,,,0.00,WUHU216HW,2013-03-06 19:41:00,
2013-03-06 14:46:00,39.5,29.8,30.05,WNW,293,0.0,0.0,68,0.00,,,0.00,WUHU216HW,2013-03-06 19:46:00,
2013-03-06 14:51:00,39.3,29.6,30.05,WNW,293,0.0,0.0,68,0.00,,,0.00,WUHU216HW,2013-03-06 19:51:00,
2013-03-06 14:56:00,39.5,29.8,30.06,WNW,293,0.0,0.0,68,0.00,,,0.00,WUHU216HW,2013-03-06 19:56:00,
2013-03-06 15:01:00,39.3,29.6,30.06,WNW,293,0.0,0.0,68,0.00,,,0.00,WUHU216HW,2013-03-06 20:01:00,
2013-03-06 15:06:00,39.5,29.8,30.06,WNW,293,0.0,0.0,68,0.00,,,0.00,WUHU216HW,2013-03-06 20:06:00,
2013-03-06 15:11:00,39.5,29.4,30.06,West,270,0.0,0.0,67,0.00,,,0.00,WUHU216HW,2013-03-06 20:11:00,
2013-03-06 15:16:00,39.0,28.9,30.06,WNW,293,0.0,0.0,67,0.00,,,0.00,WUHU216HW,2013-03-06 20:16:00,
2013-03-06 15:21:00,38.8,28.3,30.07,WNW,293,0.0,0.0,66,0.00,,,0.00,WUHU216HW,2013-03-06 20:21:00,
2013-03-06 15:26:00,38.4,28.5,30.07,WNW,293,1.5,1.5,67,0.00,,,0.00,WUHU216HW,2013-03-06 20:26:00,
2013-03-06 15:31:00,38.3,28.2,30.07,WNW,293,0.0,1.5,67,0.00,,,0.00,WUHU216HW,2013-03-06 20:31:00,
2013-03-06 15:36:00,38.3,28.2,30.07,WNW,293,0.0,0.0,67,0.00,,,0.00,WUHU216HW,2013-03-06 20:36:00,
2013-03-06 15:41:00,38.3,28.2,30.08,West,270,0.0,0.0,67,0.00,,,0.00,WUHU216HW,2013-03-06 20:41:00,
2013-03-06 15:46:00,38.3,28.2,30.08,West,270,0.0,0.0,67,0.00,,,0.00,WUHU216HW,2013-03-06 20:46:00,
2013-03-06 15:51:00,38.3,28.2,30.08,WSW,248,0.0,0.0,67,0.00,,,0.00,WUHU216HW,2013-03-06 20:51:00,
2013-03-06 15:56:00,38.1,28.0,30.08,West,270,0.0,0.0,67,0.00,,,0.00,WUHU216HW,2013-03-06 20:56:00,
2013-03-06 16:01:00,38.1,28.0,30.09,NW,315,0.0,0.0,67,0.00,,,0.00,WUHU216HW,2013-03-06 21:01:00,
2013-03-06 16:06:00,37.9,28.3,30.09,NW,315,0.0,0.0,68,0.00,,,0.00,WUHU216HW,2013-03-06 21:06:00,
2013-03-06 16:11:00,37.7,28.1,30.09,WNW,293,0.0,0.0,68,0.00,,,0.00,WUHU216HW,2013-03-06 21:11:00,
2013-03-06 16:16:00,37.7,28.1,30.09,WNW,293,0.0,0.0,68,0.00,,,0.00,WUHU216HW,2013-03-06 21:16:00,
2013-03-06 16:21:00,37.5,27.9,30.09,WSW,248,0.0,0.0,68,0.00,,,0.00,WUHU216HW,2013-03-06 21:21:00,
2013-03-06 16:26:00,37.4,27.8,30.09,WNW,293,0.0,0.0,68,0.00,,,0.00,WUHU216HW,2013-03-06 21:26:00,
2013-03-06 16:31:00,37.0,27.4,30.09,WNW,293,0.0,0.0,68,0.00,,,0.00,WUHU216HW,2013-03-06 21:31:00,
2013-03-06 16:36:00,37.0,27.4,30.09,WNW,293,0.0,0.0,68,0.00,,,0.00,WUHU216HW,2013-03-06 21:36:00,
2013-03-06 16:41:00,37.0,27.4,30.09,WNW,293,0.0,0.0,68,0.00,,,0.00,WUHU216HW,2013-03-06 21:41:00,
2013-03-06 16:47:00,37.0,27.8,30.09,WNW,293,0.0,0.0,69,0.00,,,0.00,WUHU216HW,2013-03-06 21:47:00,
2013-03-06 16:52:00,37.0,27.8,30.09,West,270,0.0,0.0,69,0.00,,,0.00,WUHU216HW,2013-03-06 21:52:00,
2013-03-06 16:57:00,37.0,27.4,30.08,West,270,0.0,0.0,68,0.00,,,0.00,WUHU216HW,2013-03-06 21:57:00,
2013-03-06 17:02:00,37.0,27.8,30.09,WSW,248,0.0,0.0,69,0.00,,,0.00,WUHU216HW,2013-03-06 22:02:00,
2013-03-06 17:07:00,37.0,27.8,30.09,SW,225,0.0,0.0,69,0.00,,,0.00,WUHU216HW,2013-03-06 22:07:00,
2013-03-06 17:12:00,37.0,27.8,30.09,West,270,0.0,0.0,69,0.00,,,0.00,WUHU216HW,2013-03-06 22:12:00,
2013-03-06 17:17:00,37.0,27.8,30.09,WSW,248,0.0,0.0,69,0.00,,,0.00,WUHU216HW,2013-03-06 22:17:00,
2013-03-06 17:22:00,36.8,27.6,30.09,WSW,248,0.0,0.0,69,0.00,,,0.00,WUHU216HW,2013-03-06 22:22:00,
2013-03-06 17:27:00,36.8,27.6,30.10,WSW,248,0.0,0.0,69,0.00,,,0.00,WUHU216HW,2013-03-06 22:27:00,
2013-03-06 17:32:00,36.6,27.4,30.10,West,270,0.0,0.0,69,0.00,,,0.00,WUHU216HW,2013-03-06 22:32:00,
2013-03-06 17:37:00,36.5,27.3,30.10,WNW,293,0.0,0.0,69,0.00,,,0.00,WUHU216HW,2013-03-06 22:37:00,
2013-03-06 17:42:00,36.5,27.6,30.10,West,270,0.0,0.0,70,0.00,,,0.00,WUHU216HW,2013-03-06 22:42:00,
2013-03-06 17:47:00,36.3,27.5,30.10,WSW,248,0.0,0.0,70,0.00,,,0.00,WUHU216HW,2013-03-06 22:47:00,
2013-03-06 17:52:00,36.1,27.3,30.10,West,270,0.0,0.0,70,0.00,,,0.00,WUHU216HW,2013-03-06 22:52:00,
2013-03-06 17:57:00,35.9,27.1,30.11,West,270,0.0,0.4,70,0.00,,,0.00,WUHU216HW,2013-03-06 22:57:00,
2013-03-06 18:02:00,35.7,26.9,30.11,West,270,0.0,0.4,70,0.00,,,0.00,WUHU216HW,2013-03-06 23:02:00,
2013-03-06 18:07:00,35.7,26.9,30.11,WSW,248,0.0,0.0,70,0.00,,,0.00,WUHU216HW,2013-03-06 23:07:00,
2013-03-06 18:12:00,35.4,26.6,30.12,West,270,0.0,0.0,70,0.00,,,0.00,WUHU216HW,2013-03-06 23:12:00,
2013-03-06 18:17:00,35.2,26.7,30.12,West,270,0.0,0.0,71,0.00,,,0.00,WUHU216HW,2013-03-06 23:17:00,
2013-03-06 18:22:00,35.2,26.7,30.12,North,0,0.0,0.0,71,0.00,,,0.00,WUHU216HW,2013-03-06 23:22:00,
2013-03-06 18:27:00,35.0,26.5,30.12,West,270,0.0,3.3,71,0.00,,,0.00,WUHU216HW,2013-03-06 23:27:00,
2013-03-06 18:32:00,35.0,26.5,30.12,West,270,0.0,3.3,71,0.00,,,0.00,WUHU216HW,2013-03-06 23:32:00,
2013-03-06 18:37:00,35.0,26.3,30.12,WSW,248,0.0,2.6,71,0.00,,,0.00,WUHU216HW,2013-03-06 23:37:00,
2013-03-06 18:42:00,34.8,26.7,30.12,West,270,0.0,2.6,72,0.00,,,0.00,WUHU216HW,2013-03-06 23:42:00,
2013-03-06 18:47:00,34.7,26.5,30.12,West,270,0.0,1.3,72,0.00,,,0.00,WUHU216HW,2013-03-06 23:47:00,
2013-03-06 18:52:00,34.7,26.5,30.13,West,270,0.0,1.3,72,0.00,,,0.00,WUHU216HW,2013-03-06 23:52:00,
2013-03-06 18:57:00,34.5,26.3,30.14,West,270,0.0,1.3,72,0.00,,,0.00,WUHU216HW,2013-03-06 23:57:00,
2013-03-06 19:02:00,34.3,26.1,30.14,WSW,248,0.0,2.4,72,0.00,,,0.00,WUHU216HW,2013-03-07 00:02:00,
2013-03-06 19:07:00,34.3,26.4,30.14,West,270,0.0,2.4,73,0.00,,,0.00,WUHU216HW,2013-03-07 00:07:00,
2013-03-06 19:12:00,34.5,26.6,30.15,West,270,0.0,5.3,73,0.00,,,0.00,WUHU216HW,2013-03-07 00:12:00,
2013-03-06 19:17:00,34.5,26.6,30.15,West,270,0.0,5.3,73,0.00,,,0.00,WUHU216HW,2013-03-07 00:17:00,
2013-03-06 19:22:00,34.3,26.4,30.15,West,270,0.0,5.3,73,0.00,,,0.00,WUHU216HW,2013-03-07 00:22:00,
2013-03-06 19:27:00,34.3,26.4,30.15,SSW,203,0.0,0.0,73,0.00,,,0.00,WUHU216HW,2013-03-07 00:27:00,
2013-03-06 19:32:00,34.3,26.4,30.15,West,270,0.0,0.0,73,0.00,,,0.00,WUHU216HW,2013-03-07 00:32:00,
2013-03-06 19:37:00,34.1,26.3,30.16,West,270,0.0,0.0,73,0.00,,,0.00,WUHU216HW,2013-03-07 00:37:00,
2013-03-06 19:42:00,34.1,26.3,30.15,WSW,248,0.0,0.0,73,0.00,,,0.00,WUHU216HW,2013-03-07 00:42:00,
2013-03-06 19:47:00,33.9,26.1,30.16,West,270,0.0,0.0,73,0.00,,,0.00,WUHU216HW,2013-03-07 00:47:00,
2013-03-06 19:52:00,33.9,26.4,30.16,West,270,0.0,0.0,74,0.00,,,0.00,WUHU216HW,2013-03-07 00:52:00,
2013-03-06 19:57:00,33.9,26.6,30.15,West,270,0.0,0.0,74,0.00,,,0.00,WUHU216HW,2013-03-07 00:57:00,
2013-03-06 20:02:00,33.9,26.4,30.15,WSW,248,0.0,2.4,74,0.00,,,0.00,WUHU216HW,2013-03-07 01:02:00,
2013-03-06 20:07:00,33.9,26.4,30.16,WNW,293,0.0,2.6,74,0.00,,,0.00,WUHU216HW,2013-03-07 01:07:00,
2013-03-06 20:12:00,33.9,26.4,30.16,West,270,0.0,2.6,74,0.00,,,0.00,WUHU216HW,2013-03-07 01:12:00,
2013-03-06 20:17:00,33.9,26.4,30.16,WSW,248,0.0,5.3,74,0.00,,,0.00,WUHU216HW,2013-03-07 01:17:00,
2013-03-06 20:22:00,33.9,26.4,30.16,NW,315,0.0,5.3,74,0.00,,,0.00,WUHU216HW,2013-03-07 01:22:00,
2013-03-06 20:27:00,33.8,26.2,30.16,WSW,248,0.0,1.3,74,0.00,,,0.00,WUHU216HW,2013-03-07 01:27:00,
2013-03-06 20:32:00,33.6,26.4,30.16,NW,315,0.0,0.0,75,0.00,,,0.00,WUHU216HW,2013-03-07 01:32:00,
2013-03-06 20:37:00,33.8,26.7,30.16,WSW,248,0.0,0.0,75,0.00,,,0.00,WUHU216HW,2013-03-07 01:37:00,
2013-03-06 20:42:00,33.6,26.4,30.16,West,270,0.0,0.0,75,0.00,,,0.00,WUHU216HW,2013-03-07 01:42:00,
2013-03-06 20:47:00,33.6,26.6,30.16,NNW,338,0.0,0.0,75,0.00,,,0.00,WUHU216HW,2013-03-07 01:47:00,
2013-03-06 20:52:00,33.6,26.4,30.16,West,270,0.0,3.1,75,0.00,,,0.00,WUHU216HW,2013-03-07 01:52:00,
2013-03-06 20:57:00,33.6,26.4,30.16,West,270,0.0,4.2,75,0.00,,,0.00,WUHU216HW,2013-03-07 01:57:00,
2013-03-06 21:02:00,33.4,26.2,30.17,WNW,293,4.4,4.4,75,0.00,,,0.00,WUHU216HW,2013-03-07 02:02:00,
2013-03-06 21:07:00,33.4,26.2,30.17,WSW,248,0.0,4.4,75,0.00,,,0.00,WUHU216HW,2013-03-07 02:07:00,
2013-03-06 21:12:00,33.4,26.2,30.17,WSW,248,0.0,4.4,75,0.00,,,0.00,WUHU216HW,2013-03-07 02:12:00,
2013-03-06 21:17:00,33.4,26.6,30.17,WSW,248,2.4,3.3,76,0.00,,,0.00,WUHU216HW,2013-03-07 02:17:00,
2013-03-06 21:22:00,33.4,26.6,30.17,West,270,0.0,3.3,76,0.00,,,0.00,WUHU216HW,2013-03-07 02:22:00,
2013-03-06 21:27:00,33.4,26.6,30.17,West,270,0.0,2.2,76,0.00,,,0.00,WUHU216HW,2013-03-07 02:27:00,
2013-03-06 21:32:00,33.4,26.6,30.17,West,270,0.0,4.2,76,0.00,,,0.00,WUHU216HW,2013-03-07 02:32:00,
2013-03-06 21:37:00,33.2,26.4,30.17,West,270,0.0,4.2,76,0.00,,,0.00,WUHU216HW,2013-03-07 02:37:00,
2013-03-06 21:42:00,33.4,26.4,30.17,WSW,248,0.0,2.6,76,0.00,,,0.00,WUHU216HW,2013-03-07 02:42:00,
2013-03-06 21:47:00,33.2,26.4,30.17,West,270,0.0,2.6,76,0.00,,,0.00,WUHU216HW,2013-03-07 02:47:00,
2013-03-06 21:52:00,33.2,26.4,30.17,West,270,1.3,3.3,76,0.00,,,0.00,WUHU216HW,2013-03-07 02:52:00,
2013-03-06 21:57:00,33.2,26.7,30.17,West,270,0.0,3.3,77,0.00,,,0.00,WUHU216HW,2013-03-07 02:57:00,
2013-03-06 22:02:00,33.2,26.7,30.17,West,270,0.0,5.1,77,0.00,,,0.00,WUHU216HW,2013-03-07 03:02:00,
2013-03-06 22:07:00,33.0,26.6,30.17,WSW,248,0.0,5.1,77,0.00,,,0.00,WUHU216HW,2013-03-07 03:07:00,
2013-03-06 22:12:00,33.0,26.6,30.17,West,270,0.0,2.0,77,0.00,,,0.00,WUHU216HW,2013-03-07 03:12:00,
2013-03-06 22:17:00,33.0,26.6,30.17,West,270,0.0,0.0,77,0.00,,,0.00,WUHU216HW,2013-03-07 03:17:00,
2013-03-06 22:22:00,32.9,26.4,30.17,WNW,293,2.2,2.2,77,0.00,,,0.00,WUHU216HW,2013-03-07 03:22:00,
2013-03-06 22:27:00,32.9,26.4,30.17,WNW,293,1.7,2.2,77,0.00,,,0.00,WUHU216HW,2013-03-07 03:27:00,
2013-03-06 22:32:00,32.9,26.4,30.18,WNW,293,3.5,3.5,77,0.00,,,0.00,WUHU216HW,2013-03-07 03:32:00,
2013-03-06 22:37:00,32.9,26.4,30.18,WSW,248,3.3,3.5,77,0.00,,,0.00,WUHU216HW,2013-03-07 03:37:00,
2013-03-06 22:42:00,32.9,26.4,30.18,WSW,248,0.0,3.3,77,0.00,,,0.00,WUHU216HW,2013-03-07 03:42:00,
2013-03-06 22:47:00,32.9,26.4,30.17,WNW,293,3.1,3.1,77,0.00,,,0.00,WUHU216HW,2013-03-07 03:47:00,
2013-03-06 22:52:00,32.9,26.4,30.17,West,270,0.0,3.1,77,0.00,,,0.00,WUHU216HW,2013-03-07 03:52:00,
2013-03-06 22:57:00,32.9,26.4,30.17,WSW,248,0.0,3.1,77,0.00,,,0.00,WUHU216HW,2013-03-07 03:57:00,
2013-03-06 23:02:00,32.9,26.2,30.18,WSW,248,0.0,4.4,77,0.00,,,0.00,WUHU216HW,2013-03-07 04:02:00,
2013-03-06 23:07:00,32.9,26.4,30.18,WSW,248,0.0,4.4,77,0.00,,,0.00,WUHU216HW,2013-03-07 04:07:00,
2013-03-06 23:12:00,32.7,26.2,30.17,WNW,293,0.0,4.9,77,0.00,,,0.00,WUHU216HW,2013-03-07 04:12:00,
2013-03-06 23:17:00,32.7,26.2,30.18,West,270,0.0,4.9,77,0.00,,,0.00,WUHU216HW,2013-03-07 04:17:00,
2013-03-06 23:22:00,32.5,26.1,30.18,West,270,0.0,2.6,77,0.00,,,0.00,WUHU216HW,2013-03-07 04:22:00,
2013-03-06 23:27:00,32.5,26.1,30.18,WNW,293,0.0,2.0,77,0.00,,,0.00,WUHU216HW,2013-03-07 04:27:00,
2013-03-06 23:32:00,32.5,26.1,30.19,West,270,0.0,5.1,77,0.00,,,0.00,WUHU216HW,2013-03-07 04:32:00,
2013-03-06 23:37:00,32.3,25.9,30.19,WSW,248,2.4,5.1,77,0.00,,,0.00,WUHU216HW,2013-03-07 04:37:00,
2013-03-06 23:42:00,32.3,25.9,30.19,WSW,248,4.0,4.0,77,0.00,,,0.00,WUHU216HW,2013-03-07 04:42:00,
2013-03-06 23:47:00,32.3,25.9,30.18,WNW,293,2.4,4.0,77,0.00,,,0.00,WUHU216HW,2013-03-07 04:47:00,
2013-03-06 23:52:00,32.3,25.9,30.18,WNW,293,0.0,3.5,77,0.00,,,0.00,WUHU216HW,2013-03-07 04:52:00,
2013-03-06 23:57:00,32.3,25.9,30.18,West,270,0.0,3.5,77,0.00,,,0.00,WUHU216HW,2013-03-07 04:57:00,